2001 RX11 

Epoch 2001 Sep. 8.0 TT = JDT 2452160.5                  Nakano

M  12.22966              (2000.0)            P               Q

n   0.21333606     Peri.  307.49564     +0.37397259     +0.92537275

a   2.7739153      Node   344.11812     -0.76346424     +0.26928167

e   0.5475176      Incl.   13.07011     -0.52656135     +0.26678204

P   4.62           H   17.9           G   0.15           U   *

Residuals in seconds of arc 

010908 699  0.3+  0.7+    010909 333  0.6+  0.0     010911 118  0.3-  0.5+  

010908 699  0.6+  0.3+    010909 333  0.5+  0.6-    010912 670  0.9-  0.1+  

010908 699  0.2-  0.3+    010909 333  0.8+  0.5-    010912 670  1.4+  0.1-  

010908 699  0.6+  0.4+    010909 918  0.0   0.4-    010912 670  0.3+  0.5+  

010908 952  2.1-  1.2+    010909 918  0.4+  1.2-    010912 587  0.3+  0.2-  

010908 952  1.7-  0.0     010909 918  0.7+  0.6-    010912 587  0.1+  1.1+  

010908 952  1.9-  0.0     010909 918  1.6+  1.0-    010918 644  0.4-  0.5-  

010908 952  1.7-  0.1+    010910 422  0.3+  0.4-    010918 644  0.5-  0.3-  

010908 557  0.5+  0.2+    010910 422  0.4+  0.5-    010918 644  0.4-  0.3-  

010908 557  0.3+  0.3+    010910 422  0.1-  0.7-    010919 704  0.1+  0.3+  

010908 557  0.3+  0.0     010911 704  0.1-  0.2-    010919 704  0.1+  0.4+  

010908 557  0.5+  0.4+    010911 704  0.2-  0.1-    010919 704  0.8+  0.6+  

010908 557  0.4+  0.3+    010911 704  0.0   0.1+    010919 704  0.4+  0.4+  

010909 844  0.2+  0.1+    010911 704  0.3-  0.2-    010919 704  0.2+  0.6+  

010909 844  1.1-  0.1-    010911 704  0.5-  0.3-    010920 360  0.1-  0.5-  

010909 844  0.7+  0.0     010911 118  0.8-  0.3+    010920 360  0.2-  0.4-  

010909 844  0.5+  0.0     010911 118  0.2-  0.5+    010920 360  0.2-  0.5-  

  

NAKANO

         **** Don't distribute anyone except personal use only ****

                (C) Copyright 2001 OAA/ComputingSection

write mail from CFAD0::NAKANO on 2001-09-22 23:09:19(JST).

 



–ß‚è‚Ü‚·B